Weather History for Wichita Falls, TX

Change the Weather History Date:

Sunday, July 14, 2013

  Actual Average (KSPS) Record (KSPS)
Temperature  
Mean Temperature 76 °F 84 °F  
Max Temperature 86 °F 97 °F 109 °F (1925)
Min Temperature 66 °F 72 °F 58 °F (1990)
Cooling Degree Days 12 19  
Month to date cooling degree days 260  
Year to date cooling degree days 1015  
Growing Degree Days 26 (Base 50)    
Moisture  
Dew Point 61 °F    
Average Humidity 70    
Maximum Humidity 93    
Minimum Humidity 40    
Precipitation  
Precipitation 0.04 in 0.04 in 1.90 in (1989)
Month to date precipitation 0.78  
Year to date precipitation 16.42  
Sea Level Pressure  
Sea Level Pressure 29.99 in    
Wind  
Wind Speed 10 mph (ESE)    
Max Wind Speed 20 mph    
Max Gust Speed 30 mph    
Visibility 10 miles    
Events Rain    
T = Trace of Precipitation, MM = Missing Value Source: NWS Daily Summary

Daily Weather History Graph

Daily Weather History Graph

Search for Another Location

Airport:

Trip Planner

Search our weather history database for the weather conditions in past years. The results will help you decide how hot, cold, wet, or windy it might be!

Date:

Astronomy

Jul. 14, 2013 Rise Set
Actual Time 6:33 AM CDT 8:45 PM CDT
Civil Twilight 6:05 AM CDT 9:14 PM CDT
Nautical Twilight 5:30 AM CDT 9:48 PM CDT
Astronomical Twilight 4:52 AM CDT 10:26 PM CDT
Moon 12:31 PM CDT (7/14) No Moon Set
Length of Visible Light 15h 08m
Length of Day
14h 12m
Waxing Crescent, 35% of the Moon is Illuminated
Jul 14
Waxing Crescent
Jul 15
First Quarter
Jul 22
Full
Jul 29
Last Quarter
Aug 6
New

Hourly Weather History & Observations

Time (CDT) Temp. Heat Index Dew Point Humidity Pressure Visibility Wind Dir Wind Speed Gust Speed Precip Events Conditions
12:15 AM 87.4 °F 87.2 °F 60.1 °F 40% 29.94 in 10.0 mi ESE 12.7 mph - N/A   Clear
12:35 AM 86.5 °F 86.3 °F 60.3 °F 41% 29.94 in 10.0 mi SE 9.2 mph - N/A   Clear
12:55 AM 86.2 °F 85.9 °F 60.1 °F 41% 29.93 in 10.0 mi SE 9.2 mph - N/A   Clear
1:15 AM 85.5 °F 85.2 °F 59.9 °F 42% 29.93 in 10.0 mi SE 11.5 mph - N/A   Clear
1:35 AM 85.1 °F 84.8 °F 59.4 °F 42% 29.92 in 10.0 mi SE 9.2 mph - N/A   Clear
1:55 AM 84.2 °F 84.0 °F 59.4 °F 43% 29.92 in 10.0 mi SE 12.7 mph - N/A   Clear
2:15 AM 84.2 °F 84.0 °F 59.2 °F 43% 29.92 in 10.0 mi SE 11.5 mph - N/A   Clear
2:35 AM 83.3 °F 83.2 °F 59.2 °F 44% 29.92 in 10.0 mi SSE 9.2 mph - N/A   Clear
2:55 AM 82.8 °F 82.8 °F 59.5 °F 45% 29.92 in 10.0 mi SE 5.8 mph - N/A   Scattered Clouds
3:15 AM 82.6 °F 82.6 °F 59.2 °F 45% 29.91 in 10.0 mi SE 8.1 mph - N/A   Scattered Clouds
3:35 AM 82.4 °F 82.5 °F 59.0 °F 45% 29.91 in 10.0 mi SE 8.1 mph - N/A   Clear
3:55 AM 81.7 °F 81.9 °F 59.0 °F 46% 29.91 in 10.0 mi ESE 8.1 mph - N/A   Clear
4:15 AM 81.7 °F 81.9 °F 59.0 °F 46% 29.91 in 10.0 mi SSE 8.1 mph - N/A   Clear
4:35 AM 81.9 °F 81.8 °F 58.1 °F 44% 29.92 in 10.0 mi SE 6.9 mph - N/A   Clear
4:55 AM 81.7 °F 81.9 °F 58.8 °F 46% 29.93 in 10.0 mi East 10.4 mph - N/A   Scattered Clouds
5:15 AM 81.5 °F 81.4 °F 57.2 °F 43% 29.94 in 10.0 mi East 11.5 mph 17.3 mph N/A   Scattered Clouds
5:35 AM 80.4 °F 80.5 °F 55.8 °F 43% 29.95 in 10.0 mi East 17.3 mph 24.2 mph N/A   Scattered Clouds
5:55 AM 78.1 °F - 56.7 °F 48% 29.96 in 10.0 mi ESE 18.4 mph 29.9 mph N/A   Clear
6:15 AM 77.2 °F - 55.4 °F 47% 29.95 in 10.0 mi ESE 18.4 mph 24.2 mph N/A   Scattered Clouds
6:35 AM 76.8 °F - 55.0 °F 47% 29.95 in 10.0 mi ESE 17.3 mph 25.3 mph N/A   Mostly Cloudy
6:55 AM 76.1 °F - 55.8 °F 49% 29.94 in 10.0 mi ESE 15.0 mph 24.2 mph N/A   Scattered Clouds
7:15 AM 73.9 °F - 59.2 °F 60% 29.95 in 10.0 mi ESE 16.1 mph 25.3 mph N/A   Clear
7:35 AM 73.2 °F - 60.3 °F 64% 29.96 in 10.0 mi East 12.7 mph 23.0 mph N/A   Scattered Clouds
7:55 AM 72.0 °F - 61.0 °F 68% 29.96 in 10.0 mi East 12.7 mph 20.7 mph N/A   Scattered Clouds
8:15 AM 71.6 °F - 60.3 °F 67% 29.97 in 10.0 mi East 12.7 mph 19.6 mph N/A   Clear
8:35 AM 71.6 °F - 59.4 °F 65% 29.99 in 10.0 mi East 11.5 mph 21.9 mph N/A   Clear
8:55 AM 72.3 °F - 55.4 °F 55% 30.01 in 10.0 mi East 17.3 mph 21.9 mph N/A   Scattered Clouds
9:35 AM 72.9 °F - 56.5 °F 56% 30.05 in 10.0 mi East 17.3 mph 23.0 mph N/A   Scattered Clouds
9:55 AM 71.6 °F - 60.3 °F 67% 30.07 in 10.0 mi ENE 17.3 mph 24.2 mph N/A   Mostly Cloudy
10:15 AM 70.3 °F - 60.6 °F 71% 30.09 in 10.0 mi ENE 15.0 mph 20.7 mph N/A   Overcast
10:35 AM 69.3 °F - 59.2 °F 70% 30.09 in 10.0 mi East 18.4 mph 25.3 mph N/A   Overcast
10:55 AM 68.2 °F - 60.6 °F 77% 30.05 in 10.0 mi ESE 19.6 mph 25.3 mph N/A Rain Light Rain
11:15 AM 68.0 °F - 61.0 °F 78% 30.05 in 10.0 mi ESE 12.7 mph 21.9 mph N/A   Scattered Clouds
11:35 AM 68.4 °F - 61.3 °F 78% 30.03 in 10.0 mi SE 11.5 mph 20.7 mph N/A   Clear
11:55 AM 69.1 °F - 61.9 °F 78% 30.00 in 10.0 mi SE 17.3 mph 21.9 mph N/A   Clear
12:15 PM 70.7 °F - 61.9 °F 74% 30.00 in 10.0 mi SE 15.0 mph 19.6 mph N/A   Clear
12:35 PM 71.4 °F - 61.7 °F 71% 30.00 in 10.0 mi SE 12.7 mph 18.4 mph N/A   Clear
12:55 PM 72.5 °F - 61.3 °F 68% 30.00 in 10.0 mi SE 9.2 mph - N/A   Clear
1:15 PM 73.4 °F - 60.6 °F 64% 30.02 in 10.0 mi ESE 11.5 mph - N/A   Scattered Clouds
1:35 PM 73.0 °F - 61.3 °F 67% 30.02 in 10.0 mi ESE 10.4 mph - N/A Rain Light Rain
1:55 PM 70.7 °F - 63.1 °F 77% 30.02 in 10.0 mi ESE 12.7 mph - N/A   Light Drizzle
2:15 PM 70.5 °F - 63.7 °F 79% 30.03 in 10.0 mi ESE 8.1 mph - N/A Rain Light Rain
2:35 PM 69.8 °F - 63.9 °F 81% 30.03 in 10.0 mi ESE 4.6 mph - N/A Rain Rain
2:55 PM 69.8 °F - 64.8 °F 84% 30.04 in 10.0 mi East 8.1 mph - N/A Rain Light Rain
3:15 PM 69.3 °F - 65.3 °F 87% 30.04 in 7.0 mi ENE 5.8 mph - N/A Rain Heavy Rain
3:35 PM 68.4 °F - 64.8 °F 88% 30.04 in 5.0 mi ESE 5.8 mph - N/A Rain Rain
3:55 PM 68.5 °F - 64.6 °F 87% 30.03 in 10.0 mi ESE 3.5 mph - N/A Rain Light Rain
4:15 PM 68.4 °F - 64.2 °F 87% 30.02 in 10.0 mi ESE 3.5 mph - N/A Rain Light Rain
4:35 PM 68.4 °F - 64.6 °F 88% 30.00 in 7.0 mi South 4.6 mph - N/A Rain Rain
4:55 PM 68.0 °F - 63.0 °F 84% 30.00 in 5.0 mi South 3.5 mph - N/A Rain Rain
5:15 PM 67.5 °F - 63.1 °F 86% 30.02 in 5.0 mi Calm Calm - N/A Rain Rain
5:35 PM 67.5 °F - 63.7 °F 88% 29.99 in 10.0 mi South 6.9 mph - N/A Rain Light Rain
5:55 PM 66.7 °F - 63.5 °F 89% 29.95 in 10.0 mi SSW 8.1 mph - N/A   Light Drizzle
6:15 PM 66.7 °F - 63.5 °F 89% 29.97 in 10.0 mi WSW 6.9 mph - 0.01 in Rain Light Rain
6:35 PM 66.2 °F - 63.0 °F 89% 29.95 in 10.0 mi WSW 5.8 mph 18.4 mph 0.01 in Rain Rain
6:55 PM 66.4 °F - 63.3 °F 90% 30.02 in 10.0 mi North 6.9 mph - 0.01 in Rain Rain
7:15 PM 66.6 °F - 63.7 °F 90% 30.02 in 10.0 mi NNE 8.1 mph - N/A Rain Rain
7:35 PM 66.6 °F - 64.0 °F 92% 30.01 in 7.0 mi Calm Calm - 0.01 in Rain Rain
7:55 PM 66.4 °F - 64.0 °F 92% 30.00 in 10.0 mi WSW 3.5 mph - 0.01 in Rain Light Rain
8:15 PM 66.4 °F - 64.4 °F 93% 30.01 in 10.0 mi NNE 3.5 mph - N/A Rain Light Rain
8:35 PM 66.6 °F - 64.4 °F 93% 30.01 in 10.0 mi Calm Calm - N/A   Mostly Cloudy
8:55 PM 66.4 °F - 64.4 °F 93% 30.01 in 10.0 mi North 3.5 mph - 0.01 in   Mostly Cloudy
9:15 PM 66.2 °F - 63.9 °F 92% 30.03 in 10.0 mi NNW 3.5 mph - N/A   Mostly Cloudy
9:35 PM 66.7 °F - 63.5 °F 89% 30.03 in 10.0 mi Calm Calm - N/A   Overcast
9:55 PM 67.1 °F - 64.2 °F 90% 30.04 in 10.0 mi North 3.5 mph - N/A   Overcast
10:15 PM 67.3 °F - 63.9 °F 89% 30.05 in 10.0 mi North 4.6 mph - 0.01 in   Overcast
10:35 PM 67.1 °F - 63.9 °F 89% 30.05 in 10.0 mi North 6.9 mph - 0.01 in   Overcast
10:55 PM 67.1 °F - 64.2 °F 90% 30.06 in 10.0 mi NNW 5.8 mph - 0.01 in   Overcast
11:15 PM 67.1 °F - 63.9 °F 89% 30.05 in 10.0 mi North 6.9 mph - N/A   Mostly Cloudy
11:35 PM 66.7 °F - 63.7 °F 90% 30.06 in 10.0 mi North 6.9 mph - N/A   Mostly Cloudy
11:55 PM 67.1 °F - 64.0 °F 90% 30.06 in 10.0 mi North 5.8 mph - N/A   Overcast